C/2020 X4 ( Leonard )

Japanese version
Home page
Updated on January 10, 2021

---------------------------------------------------------------------

* Profile

Discovery Date December 14, 2020
Magnitude 20.0 mag
Discoverer Gregory J. Leonard (Mount Lemmon Survey)

* Orbital Elements

Epoch 2020 Nov. 7.0 TT = JDT 2459160.5                                          
T 2020 Nov. 10.79651 TT                                 Rudenko                 
q   5.2092780            (2000.0)            P               Q                  
z  +0.0213968      Peri.  139.48854     +0.68928909     +0.65652783             
 +/-0.0000000      Node   161.90273     -0.56521877     +0.22278915             
e   0.8885382      Incl.   80.47920     +0.45321991     -0.72064985             
From 80 observations 2020 Dec. 14-2021 Jan. 5, mean residual 0".6.              

* Magnitudes Graph

        m1 = 9.0 + 5 log d + 10.0 log r

---------------------------------------------------------------------

The orbital elements are published on M.P.E.C. 2021-A101.
The magnitudes graphs are made with Comet for Windows.

---------------------------------------------------------------------

Copyright(C) Seiichi Yoshida (comet@aerith.net). All rights reserved.